Date_and_time,latitude,longitude,wind_speed,RelWindDirFrom,WindDirFrom,air_pressure,air_temperature,relative_humidity,Temp,platform_speed_wrt_ground,air_pressure_at_mean_sea_level,platform_orientation
2019-02-07 23:40,50.63045,-96.9807666666667,9.3,14.4,315,998.91,-22.3,65,0.29,0.0,1029.59,347.4
2019-02-07 23:50,50.63045,-96.9807666666667,9.0,13.2,317,998.87,-22.5,66,0.29,0.0,1029.55,347.4
2019-02-08 00:00,50.6304516666667,-96.9807616666667,8.7,12.8,312,998.92,-22.6,66,0.28,0.0,1029.61,142.0
2019-02-08 00:00,50.6304516666667,-96.9807616666667,9.5,9.5,303,998.94,-22.7,66,0.28,0.0,1029.63,156.5
2019-02-08 00:10,50.6304533333333,-96.9807666666667,10.1,15.6,318,998.95,-22.8,65,0.29,0.0,1029.63,156.5
2019-02-08 00:20,50.6304533333333,-96.9807666666667,10.7,16.0,316,998.96,-23.1,65,0.29,0.0,1029.66,156.5
2019-02-08 00:30,50.6304516666667,-96.980765,10.5,15.9,318,999.03,-23.3,65,0.29,0.0,1029.75,156.5
2019-02-08 00:40,50.6304533333333,-96.9807616666667,9.3,15.2,314,999.13,-23.6,66,0.29,0.0,1029.89,156.5
2019-02-08 00:50,50.6304716666667,-96.98076,11.6,16.6,314,999.01,-23.9,65,0.29,0.0,1029.81,156.5
2019-02-08 01:00,50.6304483333333,-96.98075,11.3,16.3,316,999.01,-24.1,65,0.28,0.0,1029.82,125.3
2019-02-08 01:10,50.6304466666667,-96.9807566666667,10.8,17.1,316,999.01,-24.2,65,0.28,0.0,1029.84,125.3
2019-02-08 01:20,50.6304483333333,-96.98076,10.0,15.5,315,999.06,-24.3,65,0.28,0.0,1029.91,125.3
2019-02-08 01:30,50.6304466666667,-96.98076,10.9,18.1,313,998.97,-24.5,65,0.28,0.0,1029.83,125.3
2019-02-08 01:40,50.6304483333333,-96.9807633333333,13.0,17.6,309,998.76,-24.7,65,0.28,0.0,1029.64,125.3
2019-02-08 01:50,50.6304483333333,-96.9807666666667,12.9,17.9,310,998.77,-24.9,65,0.28,0.0,1029.67,125.3
2019-02-08 02:00,50.6304516666667,-96.9807683333333,13.8,19.8,310,998.67,-25.1,65,0.28,0.0,1029.59,270.0
2019-02-08 02:10,50.6304616666667,-96.980785,13.6,18.3,311,998.68,-25.3,66,0.28,0.0,1029.63,270.0
2019-02-08 02:20,50.630455,-96.9807716666667,12.2,17.7,314,998.78,-25.4,66,0.28,0.0,1029.75,270.0
2019-02-08 02:30,50.630455,-96.9807683333333,12.8,19.1,313,998.68,-25.5,67,0.28,0.0,1029.67,270.0
2019-02-08 02:40,50.630455,-96.980765,11.5,18.4,316,998.78,-25.6,67,0.28,0.0,1029.80,270.0
2019-02-08 02:50,50.6304566666667,-96.9807683333333,11.5,17.3,320,998.80,-25.8,68,0.28,0.0,1029.83,270.0
2019-02-08 03:00,50.63046,-96.9807833333333,11.6,16.1,317,998.80,-25.8,68,0.28,0.0,1029.85,286.8
2019-02-08 03:10,50.6304616666667,-96.9807433333333,11.9,16.1,318,998.74,-25.9,68,0.28,0.0,1029.80,286.8
2019-02-08 03:20,50.6304483333333,-96.9807633333333,12.2,17.6,316,998.66,-26.0,68,0.27,0.0,1029.73,286.8
2019-02-08 03:30,50.6304316666667,-96.9807633333333,11.6,17.4,321,998.68,-26.0,68,0.27,0.0,1029.77,286.8
2019-02-08 03:40,50.6304466666667,-96.9807616666667,10.9,16.2,318,998.75,-26.1,68,0.27,0.0,1029.85,286.8
2019-02-08 03:50,50.6304483333333,-96.9807633333333,10.9,15.4,317,998.77,-26.2,69,0.27,0.0,1029.90,286.8
2019-02-08 04:00,50.6304483333333,-96.9807616666667,9.8,15.4,318,998.81,-26.2,69,0.27,0.0,1029.96,270.0
2019-02-08 04:10,50.63045,-96.9807666666667,11.1,15.4,319,998.66,-26.2,70,0.27,0.0,1029.82,270.0
2019-02-08 04:20,50.63045,-96.980765,10.8,14.8,315,998.63,-26.3,70,0.27,0.0,1029.79,270.0
2019-02-08 04:30,50.6304516666667,-96.9807666666667,9.7,13.0,314,998.74,-26.3,70,0.27,0.0,1029.91,270.0
2019-02-08 04:40,50.6304516666667,-96.9807683333333,9.8,13.7,316,998.79,-26.3,71,0.27,0.0,1029.97,270.0
2019-02-08 04:50,50.630455,-96.9807716666667,9.9,14.8,315,998.77,-26.4,71,0.27,0.0,1029.96,270.0
2019-02-08 05:00,50.6304616666667,-96.9807833333333,8.9,12.9,313,998.79,-26.4,71,0.27,0.0,1029.99,310.6
2019-02-08 05:10,50.6304583333333,-96.9807666666667,8.5,12.2,314,998.76,-26.5,71,0.27,0.0,1029.96,310.6
2019-02-08 05:20,50.6304566666667,-96.980765,9.7,14.9,309,998.68,-26.5,70,0.27,0.0,1029.89,310.6
2019-02-08 05:30,50.6304566666667,-96.9807633333333,10.3,14.2,311,998.69,-26.6,70,0.26,0.0,1029.91,310.6
2019-02-08 05:40,50.630455,-96.9807633333333,10.3,15.5,310,998.67,-26.6,70,0.26,0.0,1029.89,310.6
2019-02-08 05:50,50.630455,-96.98078,9.7,14.2,307,998.76,-26.6,70,0.26,0.0,1029.99,310.6
2019-02-08 06:00,50.6304616666667,-96.980775,10.0,13.8,306,998.72,-26.7,70,0.26,0.0,1029.95,54.7
2019-02-08 06:10,50.6304666666667,-96.9807766666667,10.0,13.5,301,998.77,-26.9,70,0.26,0.0,1030.02,54.7
2019-02-08 06:20,50.6304633333333,-96.9807733333333,10.3,15.4,302,998.84,-26.9,70,0.26,0.0,1030.10,54.7
2019-02-08 06:30,50.630465,-96.9807733333333,10.2,13.6,302,998.92,-27.0,70,0.26,0.0,1030.19,54.7
2019-02-08 06:40,50.630435,-96.9807633333333,9.2,12.9,302,999.03,-27.1,70,0.26,0.0,1030.32,54.7
2019-02-08 06:50,50.6304666666667,-96.9807816666667,8.4,13.4,304,999.16,-27.2,70,0.26,0.0,1030.45,54.7
2019-02-08 07:00,50.6304366666667,-96.9807533333333,9.3,13.1,302,999.18,-27.2,70,0.26,0.0,1030.47,165.5
2019-02-08 07:10,50.630445,-96.9807733333333,8.5,13.5,304,999.24,-27.3,70,0.26,0.0,1030.55,165.5
2019-02-08 07:20,50.6304483333333,-96.98077,8.6,12.4,300,999.24,-27.3,70,0.26,0.0,1030.55,165.5
2019-02-08 07:30,50.6304666666667,-96.9807816666667,9.6,14.0,300,999.25,-27.3,70,0.26,0.0,1030.57,165.5
2019-02-08 07:40,50.6304383333333,-96.980745,7.9,10.9,296,999.43,-27.4,70,0.26,0.0,1030.76,165.5
2019-02-08 07:50,50.6304416666667,-96.9807533333333,7.6,11.5,291,999.48,-27.5,70,0.26,0.0,1030.82,165.5
2019-02-08 08:00,50.630445,-96.9807566666667,8.0,12.4,292,999.51,-27.7,70,0.26,0.0,1030.88,152.3
2019-02-08 08:10,50.6304483333333,-96.9807616666667,8.7,12.1,296,999.56,-27.8,70,0.25,0.0,1030.94,152.3
2019-02-08 08:20,50.6304483333333,-96.980765,8.7,11.3,291,999.60,-27.8,70,0.25,0.0,1030.98,152.3
2019-02-08 08:30,50.6304466666667,-96.9807783333333,8.9,12.9,291,999.64,-27.9,70,0.25,0.0,1031.04,152.3
2019-02-08 08:40,50.6304516666667,-96.9807733333333,8.0,10.9,294,999.73,-28.0,70,0.25,0.0,1031.15,152.3
2019-02-08 08:50,50.6304433333333,-96.9807683333333,8.0,11.4,296,999.91,-28.1,70,0.25,0.0,1031.34,152.3
2019-02-08 09:00,50.63045,-96.9807633333333,8.0,10.9,293,999.99,-28.2,70,0.25,0.0,1031.42,165.5
2019-02-08 09:10,50.6304533333333,-96.9807616666667,8.2,11.5,291,1000.07,-28.2,70,0.25,0.0,1031.52,165.5
2019-02-08 09:20,50.6304533333333,-96.9807633333333,8.8,12.7,285,1000.20,-28.3,70,0.25,0.0,1031.65,165.5
2019-02-08 09:30,50.6304416666667,-96.9807516666667,8.5,11.2,290,1000.27,-28.4,70,0.25,0.0,1031.74,165.5
2019-02-08 09:40,50.6304483333333,-96.98076,9.2,12.1,285,1000.24,-28.4,70,0.25,0.0,1031.72,165.5
2019-02-08 09:50,50.63045,-96.9807616666667,8.6,12.0,289,1000.20,-28.3,70,0.25,0.0,1031.67,165.5
2019-02-08 10:00,50.6304366666667,-96.980765,8.8,12.9,289,1000.16,-28.1,70,0.25,0.0,1031.63,270.0
2019-02-08 10:10,50.63047,-96.9807916666667,7.6,11.6,281,1000.21,-27.9,70,0.25,0.0,1031.67,270.0
2019-02-08 10:20,50.63043,-96.9807633333333,7.2,10.0,276,1000.39,-27.8,70,0.25,0.0,1031.86,270.0
2019-02-08 10:30,50.6304683333333,-96.9807616666667,7.5,10.2,283,1000.50,-27.8,70,0.25,0.0,1031.98,270.0
2019-02-08 10:40,50.6304416666667,-96.98075,8.0,11.5,286,1000.60,-27.5,70,0.25,0.0,1032.07,270.0
2019-02-08 10:50,50.6304483333333,-96.9807666666667,7.3,10.2,281,1000.74,-27.3,70,0.25,0.0,1032.20,270.0
2019-02-08 11:00,50.6304516666667,-96.9807683333333,6.5,10.0,275,1000.81,-27.2,70,0.25,0.0,1032.27,360.0
2019-02-08 11:10,50.6304533333333,-96.9807683333333,6.8,9.4,275,1000.94,-27.1,70,0.25,0.0,1032.40,360.0
2019-02-08 11:20,50.6304516666667,-96.98077,6.3,9.4,270,1001.06,-26.9,70,0.25,0.0,1032.52,360.0
2019-02-08 11:30,50.630455,-96.9807533333333,6.4,9.2,274,1001.17,-26.8,71,0.25,0.0,1032.63,360.0
2019-02-08 11:40,50.63046,-96.980745,6.4,9.1,279,1001.31,-26.5,71,0.25,0.0,1032.75,360.0
2019-02-08 11:50,50.6304583333333,-96.9807616666667,7.0,10.6,281,1001.34,-26.3,71,0.25,0.0,1032.76,360.0
2019-02-08 12:00,50.6304583333333,-96.9807666666667,7.9,11.2,280,1001.46,-26.1,70,0.25,0.0,1032.85,38.0
2019-02-08 12:10,50.6304316666667,-96.9807766666667,7.6,11.3,281,1001.55,-25.9,70,0.25,0.0,1032.93,38.0
2019-02-08 12:20,50.63044,-96.980775,6.8,9.9,282,1001.66,-25.8,70,0.25,0.0,1033.02,38.0
2019-02-08 12:30,50.6304433333333,-96.98077,6.1,10.0,275,1001.86,-25.6,71,0.25,0.0,1033.21,38.0
2019-02-08 12:40,50.630445,-96.9807683333333,6.6,10.5,273,1001.90,-25.5,71,0.25,0.0,1033.23,38.0
2019-02-08 12:50,50.6304433333333,-96.9807683333333,6.6,10.0,278,1001.88,-25.2,71,0.25,0.0,1033.18,38.0
2019-02-08 13:00,50.6304516666667,-96.9807716666667,7.1,10.6,274,1001.92,-25.1,71,0.24,0.0,1033.21,360.0
2019-02-08 13:10,50.630455,-96.980775,7.2,10.7,272,1002.06,-25.1,71,0.25,0.0,1033.35,360.0
2019-02-08 13:20,50.6304533333333,-96.98077,6.6,10.1,281,1002.12,-25.1,71,0.25,0.0,1033.39,360.0
2019-02-08 13:30,50.63043,-96.9807583333333,6.5,9.0,277,1002.21,-24.9,71,0.25,0.0,1033.46,360.0
2019-02-08 13:40,50.6304566666667,-96.980775,7.7,12.1,272,1002.31,-24.8,71,0.25,0.0,1033.55,360.0
2019-02-08 13:50,50.6304566666667,-96.98077,6.0,9.1,273,1002.47,-24.7,71,0.25,0.0,1033.68,360.0
2019-02-08 14:00,50.630455,-96.98077,6.1,10.3,277,1002.63,-24.7,71,0.25,0.0,1033.83,90.0
2019-02-08 14:10,50.630455,-96.9807716666667,6.7,9.4,274,1002.74,-24.6,71,0.25,0.0,1033.93,90.0
2019-02-08 14:20,50.630445,-96.9807616666667,6.6,10.4,273,1002.92,-24.4,71,0.25,0.0,1034.09,90.0
2019-02-08 14:30,50.630445,-96.980755,7.2,10.6,273,1003.06,-24.2,71,0.25,0.0,1034.23,90.0
2019-02-08 14:40,50.630445,-96.980755,7.2,10.6,276,1003.19,-24.0,71,0.25,0.0,1034.33,90.0
2019-02-08 14:50,50.630445,-96.9807616666667,7.6,11.7,276,1003.34,-23.8,71,0.25,0.0,1034.47,90.0
2019-02-08 15:00,50.630445,-96.9807633333333,7.0,11.1,273,1003.52,-23.6,71,0.25,0.0,1034.64,360.0
2019-02-08 15:10,50.6304466666667,-96.9807633333333,8.5,11.7,273,1003.57,-23.4,70,0.25,0.0,1034.68,360.0
2019-02-08 15:20,50.6304466666667,-96.9807633333333,7.9,11.4,279,1003.61,-23.2,70,0.25,0.0,1034.69,360.0
2019-02-08 15:30,50.6304483333333,-96.980765,7.1,11.2,276,1003.84,-22.9,70,0.25,0.0,1034.91,360.0
2019-02-08 15:40,50.6304716666667,-96.9807883333333,8.2,12.6,275,1003.94,-22.6,70,0.25,0.0,1034.99,360.0
2019-02-08 15:50,50.630475,-96.9807566666667,8.7,13.1,275,1004.08,-22.4,69,0.25,0.0,1035.10,360.0
2019-02-08 16:00,50.6304466666667,-96.9807716666667,8.6,13.8,275,1004.24,-22.2,69,0.25,0.0,1035.25,360.0
2019-02-08 16:10,50.6304483333333,-96.980765,7.7,12.1,277,1004.39,-21.9,68,0.25,0.0,1035.38,360.0
2019-02-08 16:20,50.63045,-96.9807666666667,7.9,13.1,278,1004.49,-21.7,68,0.25,0.0,1035.46,360.0
2019-02-08 16:30,50.6304516666667,-96.98077,7.5,12.3,274,1004.55,-21.4,67,0.25,0.0,1035.48,360.0
2019-02-08 16:40,50.6304516666667,-96.9807683333333,7.4,10.4,286,1004.54,-21.2,67,0.25,0.0,1035.45,360.0
2019-02-08 16:50,50.6304533333333,-96.9807716666667,7.9,12.3,283,1004.64,-21.0,66,0.25,0.0,1035.53,360.0
2019-02-08 17:00,50.6304533333333,-96.9807733333333,7.3,11.7,278,1004.77,-20.7,66,0.25,0.0,1035.64,270.0
2019-02-08 17:10,50.6304533333333,-96.9807716666667,7.2,11.2,274,1004.90,-20.5,65,0.25,0.0,1035.74,270.0
2019-02-08 17:20,50.6304533333333,-96.9807733333333,8.1,12.6,285,1004.92,-20.5,65,0.25,0.0,1035.75,270.0
2019-02-08 17:30,50.6304533333333,-96.9807716666667,8.6,12.8,298,1004.97,-20.3,64,0.25,0.0,1035.76,270.0
2019-02-08 17:40,50.6304533333333,-96.9807733333333,6.6,11.8,287,1005.25,-20.0,64,0.26,0.0,1036.03,270.0
2019-02-08 17:50,50.6304533333333,-96.9807733333333,7.1,12.0,280,1005.36,-19.8,64,0.26,0.0,1036.11,270.0
2019-02-08 18:00,50.6304533333333,-96.9807716666667,7.8,11.6,271,1005.42,-19.7,63,0.26,0.0,1036.14,345.5
2019-02-08 18:10,50.6304533333333,-96.9807716666667,7.2,11.1,276,1005.48,-19.6,63,0.26,0.0,1036.19,345.5
2019-02-08 18:20,50.6304533333333,-96.9807716666667,7.7,10.6,270,1005.60,-19.4,63,0.26,0.0,1036.28,345.5
2019-02-08 18:30,50.6304516666667,-96.9807816666667,7.5,10.3,265,1005.58,-19.1,62,0.26,0.0,1036.23,345.5
2019-02-08 18:40,50.6304516666667,-96.9807783333333,7.8,11.3,259,1005.57,-18.9,61,0.26,0.0,1036.19,345.5
2019-02-08 18:50,50.6304516666667,-96.9807733333333,7.2,12.2,258,1005.66,-18.9,62,0.26,0.0,1036.28,345.5
2019-02-08 19:00,50.6304466666667,-96.980775,8.1,11.3,252,1005.84,-18.9,62,0.26,0.0,1036.45,0.0
2019-02-08 19:10,50.6304483333333,-96.9807766666667,8.1,12.2,261,1005.86,-18.7,62,0.26,0.0,1036.46,0.0
2019-02-08 19:20,50.6304483333333,-96.9807766666667,7.0,10.5,261,1005.96,-18.5,61,0.27,0.0,1036.53,0.0
2019-02-08 19:30,50.6304483333333,-96.980775,7.4,10.9,263,1006.03,-18.4,61,0.27,0.0,1036.58,0.0
2019-02-08 19:40,50.630435,-96.98078,6.9,10.7,271,1006.26,-18.3,61,0.27,0.0,1036.80,0.0
2019-02-08 19:50,50.630445,-96.9807616666667,7.5,10.5,263,1006.46,-18.4,61,0.27,0.0,1037.01,0.0
2019-02-08 20:00,50.6304466666667,-96.9807666666667,6.8,10.8,265,1006.57,-18.3,61,0.27,0.0,1037.11,131.7
2019-02-08 20:10,50.6304766666667,-96.9807766666667,7.5,11.7,285,1006.60,-18.2,61,0.27,0.0,1037.12,131.7
2019-02-08 20:20,50.6304333333333,-96.980755,9.0,12.1,299,1006.52,-18.3,61,0.27,0.0,1037.03,131.7
2019-02-08 20:30,50.63045,-96.980765,7.7,11.2,302,1006.65,-18.3,61,0.27,0.0,1037.15,131.7
2019-02-08 20:40,50.6304516666667,-96.9807666666667,7.2,10.7,314,1006.76,-18.4,61,0.28,0.0,1037.26,131.7
2019-02-08 20:50,50.6304616666667,-96.9807583333333,7.1,11.1,306,1006.85,-18.4,61,0.28,0.0,1037.36,131.7
2019-02-08 21:00,50.6304533333333,-96.980755,7.0,10.7,297,1006.98,-18.4,61,0.28,0.0,1037.49,90.0
2019-02-08 21:10,50.630455,-96.9807583333333,5.6,8.7,303,1007.19,-18.3,60,0.28,0.0,1037.68,90.0
2019-02-08 21:20,50.6304533333333,-96.9807583333333,6.0,10.2,302,1007.31,-18.1,59,0.28,0.0,1037.78,90.0
2019-02-08 21:30,50.6304516666667,-96.9807583333333,5.9,8.5,287,1007.45,-18.0,58,0.29,0.0,1037.91,90.0
2019-02-08 21:40,50.630465,-96.9807683333333,5.4,8.3,271,1007.60,-18.1,58,0.29,0.0,1038.08,90.0
2019-02-08 21:50,50.6304666666667,-96.98077,4.8,8.2,274,1007.77,-17.8,57,0.29,0.0,1038.23,90.0
2019-02-08 22:00,50.6304616666667,-96.9807666666667,4.1,6.6,270,1007.97,-17.5,56,0.29,0.0,1038.42,360.0
2019-02-08 22:10,50.6304516666667,-96.9807766666667,5.9,9.3,270,1008.06,-17.6,56,0.29,0.0,1038.52,360.0
2019-02-08 22:20,50.6304533333333,-96.9807716666667,5.8,10.4,270,1008.16,-17.8,56,0.29,0.0,1038.63,360.0
2019-02-08 22:30,50.6304416666667,-96.980775,5.8,9.1,266,1008.36,-18.0,56,0.29,0.0,1038.85,360.0
2019-02-08 22:40,50.6304516666667,-96.9807766666667,5.4,8.6,267,1008.48,-18.1,57,0.30,0.0,1038.99,360.0
2019-02-08 22:50,50.6304483333333,-96.9807733333333,4.7,6.5,277,1008.47,-18.2,57,0.30,0.0,1038.99,360.0
2019-02-08 23:00,50.6304483333333,-96.9807683333333,4.4,6.5,273,1008.61,-18.3,57,0.30,0.0,1039.13,0.0
2019-02-08 23:10,50.6304483333333,-96.98077,4.1,6.0,274,1008.72,-18.5,58,0.30,0.0,1039.24,0.0
2019-02-08 23:20,50.6304483333333,-96.98077,3.6,5.3,265,1008.85,-18.8,58,0.30,0.0,1039.39,0.0
2019-02-08 23:30,50.6304483333333,-96.98077,3.0,4.3,266,1008.94,-19.1,59,0.30,0.0,1039.51,0.0
2019-02-08 23:40,50.6304483333333,-96.98077,2.8,4.2,244,1009.09,-19.6,61,0.30,0.0,1039.67,0.0
2019-02-08 23:50,50.6304183333333,-96.9807466666667,3.9,5.2,242,1009.20,-20.0,61,0.30,0.0,1039.79,0.0
